Torna al catalogo

SL-16 DEB

AttivoLEO
NORAD 39724·DEBRIS·🇷🇺 Russia

Lanciato Dec 25, 1992 da Baikonur Cosmodrome

Loading…

Prossimi Passaggi (prossime 24 ore)

TLE

AggiornatoSource: Space-Track

Epoca: Sep 13, 2026, 05:55 UTC

1 39724U 92093KQ  26256.24716654  .00000209  00000-0  15880-3 0  9990
2 39724  70.8482  84.8599 0087507 173.2244 187.0078 14.03284355634592

Traccia SL-16 DEB in tempo reale con AllMySat

Download on the App Store